Index of /20260506/WXO-DD/model_gdps/15km/12/076
Name Last modified Size Description
Parent Directory -
20260506T12Z_MSC_GDPS_AirTemp_AGL-120m_LatLon0.15_PT076H.grib2 2026-05-06 18:26 904K
20260506T12Z_MSC_GDPS_AirTemp_AGL-2m_LatLon0.15_PT076H.grib2 2026-05-06 18:26 1.0M
20260506T12Z_MSC_GDPS_AirTemp_AGL-40m_LatLon0.15_PT076H.grib2 2026-05-06 18:26 805K
20260506T12Z_MSC_GDPS_AirTemp_AGL-80m_LatLon0.15_PT076H.grib2 2026-05-06 18:26 913K
20260506T12Z_MSC_GDPS_Albedo_Sfc_LatLon0.15_PT076H.grib2 2026-05-06 18:26 244K
20260506T12Z_MSC_GDPS_ConvectivePrecip-Accum_Sfc_LatLon0.15_PT076H.grib2 2026-05-06 18:26 3.1M
20260506T12Z_MSC_GDPS_DewPointDepression_AGL-2m_LatLon0.15_PT076H.grib2 2026-05-06 18:26 763K
20260506T12Z_MSC_GDPS_DewPoint_AGL-2m_LatLon0.15_PT076H.grib2 2026-05-06 18:26 609K
20260506T12Z_MSC_GDPS_DownwardLongwaveRadiationFlux-Accum_Sfc_LatLon0.15_PT076H.grib2 2026-05-06 18:26 678K
20260506T12Z_MSC_GDPS_DownwardShortwaveRadiationFlux-Accum_Sfc_LatLon0.15_PT076H.grib2 2026-05-06 18:26 883K
20260506T12Z_MSC_GDPS_FreezingRain-Accum1h_Sfc_LatLon0.15_PT076H.grib2 2026-05-06 18:26 32K
20260506T12Z_MSC_GDPS_FreezingRain-Accum_Sfc_LatLon0.15_PT076H.grib2 2026-05-06 18:26 275K
20260506T12Z_MSC_GDPS_IcePellets-Accum1h_Sfc_LatLon0.15_PT076H.grib2 2026-05-06 18:26 20K
20260506T12Z_MSC_GDPS_IcePellets-Accum_Sfc_LatLon0.15_PT076H.grib2 2026-05-06 18:26 93K
20260506T12Z_MSC_GDPS_LatentHeatNetFlux_Sfc_LatLon0.15_PT076H.grib2 2026-05-06 18:26 722K
20260506T12Z_MSC_GDPS_NetLongwaveRadiationFlux-Accum_Sfc_LatLon0.15_PT076H.grib2 2026-05-06 18:26 1.0M
20260506T12Z_MSC_GDPS_NetShortwaveRadiationFlux-Accum_Sfc_LatLon0.15_PT076H.grib2 2026-05-06 18:26 1.1M
20260506T12Z_MSC_GDPS_O3MixingRatio_Sfc_LatLon0.15_PT076H.grib2 2026-05-06 18:20 1.9M
20260506T12Z_MSC_GDPS_O3_EAtm_LatLon0.15_PT076H.grib2 2026-05-06 18:20 2.5M
20260506T12Z_MSC_GDPS_PlanetaryBoundaryLayerHeight_Sfc_LatLon0.15_PT076H.grib2 2026-05-06 18:26 2.5M
20260506T12Z_MSC_GDPS_Precip-Accum1h_Sfc_LatLon0.15_PT076H.grib2 2026-05-06 18:26 3.3M
20260506T12Z_MSC_GDPS_Precip-Accum_Sfc_LatLon0.15_PT076H.grib2 2026-05-06 18:26 4.6M
20260506T12Z_MSC_GDPS_PrecipRate_Sfc_LatLon0.15_PT076H.grib2 2026-05-06 18:26 3.0M
20260506T12Z_MSC_GDPS_Pressure_MSL_LatLon0.15_PT076H.grib2 2026-05-06 18:26 843K
20260506T12Z_MSC_GDPS_Pressure_Sfc_LatLon0.15_PT076H.grib2 2026-05-06 18:26 1.1M
20260506T12Z_MSC_GDPS_RadiativeTemp_Sfc_LatLon0.15_PT076H.grib2 2026-05-06 18:26 489K
20260506T12Z_MSC_GDPS_Rain-Accum1h_Sfc_LatLon0.15_PT076H.grib2 2026-05-06 18:26 1.6M
20260506T12Z_MSC_GDPS_Rain-Accum_Sfc_LatLon0.15_PT076H.grib2 2026-05-06 18:26 3.5M
20260506T12Z_MSC_GDPS_RelativeHumidity_AGL-2m_LatLon0.15_PT076H.grib2 2026-05-06 18:26 1.1M
20260506T12Z_MSC_GDPS_Runoff-Accum_Sfc_LatLon0.15_PT076H.grib2 2026-05-06 18:26 113K
20260506T12Z_MSC_GDPS_SensibleHeatNetFlux_Sfc_LatLon0.15_PT076H.grib2 2026-05-06 18:26 481K
20260506T12Z_MSC_GDPS_Snow-Accum1h_Sfc_LatLon0.15_PT076H.grib2 2026-05-06 18:26 1.1M
20260506T12Z_MSC_GDPS_Snow-Accum_Sfc_LatLon0.15_PT076H.grib2 2026-05-06 18:26 1.9M
20260506T12Z_MSC_GDPS_SnowDepth_Sfc_LatLon0.15_PT076H.grib2 2026-05-06 18:26 1.7M
20260506T12Z_MSC_GDPS_SoilTemp_DBS-0to10cm_LatLon0.15_PT076H.grib2 2026-05-06 18:26 510K
20260506T12Z_MSC_GDPS_SoilTemp_Sfc_LatLon0.15_PT076H.grib2 2026-05-06 18:26 573K
20260506T12Z_MSC_GDPS_SoilVolumetricWaterContent_DBS-0to10cm_LatLon0.15_PT076H.grib2 2026-05-06 18:26 598K
20260506T12Z_MSC_GDPS_SoilVolumetricWaterContent_DBS-0to1cm_LatLon0.15_PT076H.grib2 2026-05-06 18:26 652K
20260506T12Z_MSC_GDPS_SpecificHumidity_AGL-120m_LatLon0.15_PT076H.grib2 2026-05-06 18:26 1.1M
20260506T12Z_MSC_GDPS_SpecificHumidity_AGL-2m_LatLon0.15_PT076H.grib2 2026-05-06 18:26 1.2M
20260506T12Z_MSC_GDPS_SpecificHumidity_AGL-40m_LatLon0.15_PT076H.grib2 2026-05-06 18:26 1.1M
20260506T12Z_MSC_GDPS_SpecificHumidity_AGL-80m_LatLon0.15_PT076H.grib2 2026-05-06 18:26 1.1M
20260506T12Z_MSC_GDPS_SpecificHumidity_Sfc_LatLon0.15_PT076H.grib2 2026-05-06 18:26 678K
20260506T12Z_MSC_GDPS_TotalCloudCover_Sfc_LatLon0.15_PT076H.grib2 2026-05-06 18:26 820K
20260506T12Z_MSC_GDPS_UVIndex-ClearSky_Sfc_LatLon0.15_PT076H.grib2 2026-05-06 18:20 1.0M
20260506T12Z_MSC_GDPS_UVIndex_Sfc_LatLon0.15_PT076H.grib2 2026-05-06 18:20 1.5M
20260506T12Z_MSC_GDPS_UpwardLongwaveRadiationFlux_NTAtm_LatLon0.15_PT076H.grib2 2026-05-06 18:26 835K
20260506T12Z_MSC_GDPS_WindDir_AGL-10m_LatLon0.15_PT076H.grib2 2026-05-06 18:26 1.3M
20260506T12Z_MSC_GDPS_WindDir_AGL-120m_LatLon0.15_PT076H.grib2 2026-05-06 18:26 1.3M
20260506T12Z_MSC_GDPS_WindDir_AGL-40m_LatLon0.15_PT076H.grib2 2026-05-06 18:26 1.4M
20260506T12Z_MSC_GDPS_WindDir_AGL-80m_LatLon0.15_PT076H.grib2 2026-05-06 18:26 1.3M
20260506T12Z_MSC_GDPS_WindDir_IsbL-0700_LatLon0.15_PT076H.grib2 2026-05-06 18:26 1.6M
20260506T12Z_MSC_GDPS_WindGust-Max_AGL-10m_LatLon0.15_PT076H.grib2 2026-05-06 18:26 2.2M
20260506T12Z_MSC_GDPS_WindGust-Min_AGL-10m_LatLon0.15_PT076H.grib2 2026-05-06 18:26 2.2M
20260506T12Z_MSC_GDPS_WindGust_AGL-10m_LatLon0.15_PT076H.grib2 2026-05-06 18:26 2.2M
20260506T12Z_MSC_GDPS_WindSpeed_AGL-10m_LatLon0.15_PT076H.grib2 2026-05-06 18:26 1.1M
20260506T12Z_MSC_GDPS_WindSpeed_AGL-120m_LatLon0.15_PT076H.grib2 2026-05-06 18:26 1.2M
20260506T12Z_MSC_GDPS_WindSpeed_AGL-40m_LatLon0.15_PT076H.grib2 2026-05-06 18:26 1.2M
20260506T12Z_MSC_GDPS_WindSpeed_AGL-80m_LatLon0.15_PT076H.grib2 2026-05-06 18:26 1.2M
20260506T12Z_MSC_GDPS_WindSpeed_IsbL-0700_LatLon0.15_PT076H.grib2 2026-05-06 18:26 1.5M
20260506T12Z_MSC_GDPS_WindU_AGL-10m_LatLon0.15_PT076H.grib2 2026-05-06 18:26 1.3M
20260506T12Z_MSC_GDPS_WindU_AGL-120m_LatLon0.15_PT076H.grib2 2026-05-06 18:26 1.0M
20260506T12Z_MSC_GDPS_WindU_AGL-40m_LatLon0.15_PT076H.grib2 2026-05-06 18:26 964K
20260506T12Z_MSC_GDPS_WindU_AGL-80m_LatLon0.15_PT076H.grib2 2026-05-06 18:26 1.0M
20260506T12Z_MSC_GDPS_WindU_IsbL-0700_LatLon0.15_PT076H.grib2 2026-05-06 18:26 1.2M
20260506T12Z_MSC_GDPS_WindV_AGL-10m_LatLon0.15_PT076H.grib2 2026-05-06 18:26 1.3M
20260506T12Z_MSC_GDPS_WindV_AGL-120m_LatLon0.15_PT076H.grib2 2026-05-06 18:26 1.0M
20260506T12Z_MSC_GDPS_WindV_AGL-40m_LatLon0.15_PT076H.grib2 2026-05-06 18:26 967K
20260506T12Z_MSC_GDPS_WindV_AGL-80m_LatLon0.15_PT076H.grib2 2026-05-06 18:26 972K
20260506T12Z_MSC_GDPS_WindV_IsbL-0700_LatLon0.15_PT076H.grib2 2026-05-06 18:26 1.2M